Vorticity
nan nan nan nan nan nan nan nan nan nan nan nan nan nan nan nan nan nan nan nan nan nan nan nan nan nan nan nan nan nan nan nan nan nan nan nan nan nan nan nan nan nan nan nan nan nan nan nan nan
nan 8 5 7 11 11 5 5 3 7 7 6 7 2 -3 15 21 10 9 6 2 5 8 6 7 6 6 6 6 5 6 5 6 7 6 6 6 6 7 6 5 6 5 5 5 4 4 4 nan
nan 4 7 9 10 12 9 8 7 6 5 4 1 5 15 12 5 9 7 6 7 4 6 4 7 6 6 6 6 6 6 5 6 6 6 7 6 6 6 6 6 6 4 4 4 4 5 5 nan
nan 11 8 10 15 10 7 6 8 2 2 7 6 9 11 2 13 11 5 1 3 5 6 6 6 6 6 6 7 6 5 5 5 7 9 8 7 6 6 6 6 5 4 4 4 4 6 9 nan
nan 6 8 12 10 5 10 7 4 5 6 3 9 10 1 5 12 6 4 4 5 6 3 3 5 6 5 7 7 6 5 6 5 7 11 8 6 7 7 6 6 5 4 4 3 5 7 11 nan
nan 4 12 11 6 6 7 5 6 6 5 10 11 3 3 12 5 4 4 4 5 6 7 3 4 6 6 6 5 5 5 5 6 6 6 7 7 7 7 6 5 5 4 4 3 5 7 8 nan
nan 7 10 7 4 3 6 12 7 8 9 12 5 0 10 8 3 5 3 8 5 4 4 6 5 4 3 4 6 5 5 4 5 4 4 4 6 6 5 5 5 4 4 3 3 4 5 7 nan
nan 10 9 6 7 6 3 11 12 7 4 9 6 12 13 6 5 4 5 3 6 6 3 4 6 4 4 5 4 4 4 4 5 4 5 4 3 3 6 4 1 3 4 4 4 4 4 5 nan
nan 10 10 11 9 7 8 3 8 13 6 2 15 21 9 7 4 3 5 4 4 5 7 6 7 4 4 7 4 6 5 6 7 8 7 7 7 6 2 4 7 4 4 4 4 5 4 4 nan
nan 13 8 8 13 7 8 9 6 4 8 12 12 10 8 5 4 5 4 5 6 4 3 7 7 4 6 7 6 6 6 1 4 9 11 10 8 6 8 11 10 9 7 9 7 8 7 11 nan
nan 10 10 9 8 8 11 7 6 4 9 10 9 5 5 5 6 4 3 7 7 4 10 3 4 4 10 6 6 4 7 7 1 5 5 6 8 11 7 5 11 13 13 10 12 12 5 4 nan
nan 9 9 12 6 7 7 9 7 8 13 13 9 6 5 5 5 7 12 7 7 7 5 6 7 5 9 4 7 6 10 5 7 7 9 8 7 4 6 10 10 5 9 7 11 9 10 6 nan
nan 10 7 4 8 6 8 5 6 14 13 11 7 6 5 6 5 4 5 12 11 7 7 10 5 6 5 7 9 8 7 9 6 3 4 9 8 5 6 7 6 8 7 7 8 5 9 7 nan
nan 9 9 4 4 5 8 7 8 12 9 7 6 6 6 8 7 8 7 9 5 10 5 4 5 9 3 10 7 5 4 9 6 6 7 5 1 11 8 9 3 7 3 4 7 4 7 11 nan
nan 1 1 8 3 8 5 5 12 13 7 6 6 7 8 7 8 6 11 7 8 11 8 5 4 5 4 6 5 7 12 3 7 6 4 4 6 8 6 7 5 7 5 8 4 7 7 8 nan
nan 6 2 8 2 0 9 14 11 9 7 5 5 7 8 9 8 7 7 7 9 5 10 10 6 6 5 5 6 7 7 7 7 8 6 7 5 3 8 3 7 6 7 8 6 10 7 6 nan
nan 11 12 9 5 6 3 12 9 6 5 5 5 6 8 7 7 7 8 11 8 11 7 5 6 7 5 6 5 5 5 7 8 8 8 9 2 6 9 5 5 5 10 8 9 6 6 6 nan
nan 12 12 12 14 1 3 10 11 7 5 6 6 6 7 6 8 8 8 10 9 9 8 6 7 7 5 3 5 9 6 8 6 9 12 7 7 5 6 8 7 6 9 8 6 6 7 7 nan
nan 7 10 13 6 3 14 9 11 8 6 7 5 7 8 9 7 6 7 8 10 8 8 7 5 5 5 5 7 6 6 7 12 12 8 4 8 6 6 7 6 9 7 7 6 6 7 7 nan
nan 6 6 12 5 21 4 6 9 8 9 9 7 9 7 8 5 6 6 6 6 8 7 8 6 5 4 3 4 5 8 8 8 9 10 7 6 5 6 8 5 5 10 7 8 6 8 10 nan
nan 12 3 12 3 2 6 19 8 8 7 10 8 8 7 7 6 7 6 5 6 7 8 8 7 5 4 4 7 6 4 7 10 9 13 12 8 5 5 6 5 7 9 9 9 5 6 8 nan
nan 11 11 10 4 -5 13 -6 14 14 7 7 9 8 8 8 6 6 6 7 6 6 7 8 9 8 6 8 3 7 7 7 7 10 10 9 9 7 9 10 9 5 3 9 12 11 7 6 nan
nan 12 11 4 9 -0 10 9 18 11 7 8 6 9 9 8 8 6 7 8 8 10 10 10 9 5 9 9 8 8 5 3 4 5 9 9 7 14 9 8 9 10 9 6 5 8 7 7 nan
nan 7 5 8 8 14 9 13 18 23 14 10 8 8 8 7 7 11 11 8 9 7 11 16 17 9 11 7 10 8 8 8 8 7 8 8 9 11 13 15 9 8 9 8 9 9 8 6 nan
nan 3 5 8 7 9 15 9 12 9 8 12 18 9 7 7 9 5 6 6 8 9 9 16 15 13 11 12 12 16 13 11 9 10 11 9 11 10 12 8 9 12 10 10 11 9 8 8 nan
nan 4 4 7 5 8 8 15 6 6 9 5 6 15 15 10 9 15 14 11 12 12 10 8 10 16 6 7 10 10 13 18 12 9 11 12 10 6 6 6 9 11 11 11 9 11 13 10 nan
nan 9 -2 7 11 10 1 9 12 6 7 15 17 22 20 14 10 11 12 18 18 10 9 10 10 7 6 8 9 8 5 8 7 8 9 10 7 9 7 5 6 9 11 13 12 9 9 11 nan
nan 14 17 5 5 8 11 13 15 13 2 7 12 16 21 14 15 7 7 10 10 11 8 7 10 10 9 2 5 5 7 9 8 6 8 8 8 5 5 7 8 8 9 9 11 12 10 9 nan
nan 3 2 2 12 15 12 12 14 19 15 8 4 4 7 8 6 9 8 7 5 6 7 6 5 8 10 7 8 8 9 8 8 10 10 7 7 8 8 9 8 8 8 8 9 9 9 9 nan
nan nan nan nan nan nan nan nan nan nan nan nan nan nan nan nan nan nan nan nan nan nan nan nan nan nan nan nan nan nan nan nan nan nan nan nan nan nan nan nan nan nan nan nan nan nan nan nan nan
CAPE
1459 1312 1479 1425 1442 370 187 111 40 56 61 69 130 67 277 235 429 436 99 175 324 350 922 1264 1846 2145 1917 2058 2011 1635 1623 1642 1972 1773 1634 2056 2109 1889 1949 2086 2182 1971 1933 2014 1966 1915 1917 1769 1678
1777 1365 2001 2612 679 109 138 85 94 107 167 137 77 184 102 0 4 10 68 234 380 579 853 1174 1921 2002 2064 2176 1987 2156 1898 1962 2046 1892 1714 1708 1837 1901 2029 1749 2125 2038 2005 1918 1899 1878 1846 1789 1824
1704 1955 2954 1352 211 121 81 91 88 207 198 230 367 210 64 1 0 4 65 468 817 1008 1111 1636 1966 2207 2060 1919 2087 1835 1977 2063 1883 1388 1156 1000 1024 1263 1506 1722 2043 2100 2022 1905 1692 1172 926 844 1136
2386 2913 2525 804 92 135 66 158 106 85 74 139 163 33 0 9 9 6 141 447 745 1130 1424 1968 2231 2203 2010 1848 2017 1812 1979 2212 2008 1994 1824 1458 1261 1015 1108 1110 1470 1813 1715 1482 1210 761 710 1337 1040
2253 1746 599 152 106 142 157 95 86 72 102 150 278 48 0 7 2 4 366 522 786 894 1191 1521 2237 2316 1968 2027 1779 2003 2393 2073 2015 2018 1874 2213 1536 1234 1107 1009 1187 1208 1210 1234 938 635 976 1650 1509
1669 826 312 146 98 70 76 78 127 106 145 90 352 10 90 5 0 21 420 646 862 825 922 1270 2328 2272 1862 1903 1961 2555 2024 2183 2119 2014 1855 1754 1641 1543 1427 1340 1259 1180 1191 1083 892 743 906 1536 1420
676 586 233 132 125 122 62 43 87 148 117 161 176 302 53 5 0 4 338 743 806 935 852 965 1639 1950 1889 2214 2270 2049 2031 2046 2161 2208 2231 2117 1948 1856 1682 1648 1533 1499 1413 1218 906 707 811 958 1557
1237 250 128 59 73 61 47 24 32 104 228 123 101 163 17 0 0 0 153 688 955 1059 932 986 1936 1284 1899 2228 2562 2264 1999 1883 1958 2009 2137 2309 2403 2372 1987 2675 2017 1527 1200 1023 911 928 959 1109 1189
658 1030 119 66 54 29 19 21 22 8 65 159 143 72 3 0 0 3 162 409 803 1194 1332 863 1494 899 1934 1660 1781 1965 1963 1966 1794 1475 1811 2276 2072 2085 1932 1652 1924 2237 2397 2290 2074 1963 1820 1552 1311
1015 164 116 67 37 21 17 6 0 59 93 85 134 122 5 13 1 3 154 339 490 865 1243 765 389 799 1635 930 1369 1011 835 1979 2338 2281 2147 1364 1570 1526 1530 1886 1734 1812 1936 2218 2834 3234 3495 2975 2124
323 169 56 68 29 15 3 0 2 24 36 39 338 145 82 294 298 183 109 310 397 658 989 630 285 733 809 742 447 916 1151 1738 2346 2642 2388 2261 1692 2100 1724 1833 2103 2021 2958 2395 2616 2657 2573 1531 1656
229 139 82 27 33 24 9 3 8 29 9 2 194 187 216 251 286 316 415 486 510 486 696 688 556 1181 1027 755 523 488 919 1228 1718 2230 2305 2244 1788 1596 1501 1636 1526 1398 1566 1719 1743 1809 2015 1813 1803
285 100 124 112 100 16 4 5 1 33 0 16 65 76 119 123 120 110 230 431 541 560 640 1072 937 1019 1300 1114 1061 607 1022 1201 1700 1823 2161 1794 1635 2120 1704 1659 1359 1513 1418 1533 1961 2055 2129 2098 1718
115 155 226 194 191 153 31 42 0 1 1 0 7 35 67 83 100 216 266 566 646 672 637 1281 557 1230 1107 1464 1404 920 770 1612 1554 1137 1956 1854 2228 2696 1615 1514 1182 1349 1634 1760 2090 2508 1909 1770 1485
140 264 361 354 251 103 52 56 0 4 1 1 11 23 39 49 122 265 167 815 580 656 688 778 484 924 1103 1394 1749 1293 619 609 743 1207 1971 1894 2124 2393 2869 1326 1261 1475 1868 1726 1826 2684 1709 1434 1496
164 393 540 545 363 160 117 237 0 8 6 11 17 17 38 126 123 185 149 127 737 790 1220 605 606 611 870 1257 1709 1252 1155 762 380 571 1018 1660 1678 1780 2421 996 1012 2189 1798 1153 1330 1510 1722 1884 1733
984 725 304 560 342 218 235 280 0 3 23 32 33 26 33 137 187 163 179 155 348 934 1014 500 603 375 668 1479 1337 1292 1457 1384 872 325 471 1711 1287 1034 1612 785 1175 2064 1297 948 1242 1743 2210 1910 1808
307 560 377 401 384 199 276 207 19 9 90 71 62 79 96 152 190 260 200 260 298 711 810 813 633 470 799 1248 1402 1194 1355 1301 1203 1612 466 796 1149 1522 1623 751 967 1362 643 871 2527 2462 2115 2081 1565
111 109 257 538 320 312 391 350 146 2 60 60 72 65 100 146 294 297 306 265 304 554 895 1031 879 903 929 1083 1144 1134 1329 1567 1733 1789 1980 2451 2032 1630 2002 1384 1075 1004 892 1530 2070 1898 1970 1417 1635
23 174 107 293 523 542 624 621 506 110 10 23 63 194 112 101 211 284 421 523 480 438 688 935 957 1080 1225 1098 1158 1051 2157 2577 2551 1302 1934 2009 2422 1678 1568 2286 1556 1325 1254 1275 1289 1708 1673 1072 1189
2 15 42 59 441 690 77 752 729 582 228 6 21 105 170 137 211 508 485 557 617 843 817 800 893 1002 1236 1117 825 1137 1800 2010 1083 1207 1051 1489 1914 1760 1941 2160 2402 2658 2467 1196 1647 1586 1836 1063 1381
49 6 4 307 402 382 759 111 17 771 914 505 20 49 86 308 359 401 476 567 660 765 1028 1178 1479 1360 1389 1532 1781 1928 1726 1113 1226 889 2061 1260 1045 1208 1286 2195 2281 2631 2413 3347 2332 1469 2894 2651 1027
2 0 0 67 237 279 62 219 247 478 941 861 697 79 36 60 260 295 138 589 584 835 1122 1354 1892 2666 2797 2121 2942 1569 2215 2030 1795 1189 1619 1460 1875 1964 1520 1422 1731 2431 2095 3174 3452 3609 3581 2143 1651
0 0 0 50 58 229 79 123 366 521 613 697 839 680 175 49 133 297 353 397 681 790 678 1378 2237 2566 2575 2332 2231 2261 1681 1460 1240 1438 2363 1304 1093 1339 1940 1580 1801 2531 2855 2969 2794 3675 3820 3733 3204
0 2 14 22 19 15 39 17 371 741 1031 745 674 970 737 427 216 297 592 717 880 780 928 1145 2458 2112 1737 1786 1749 1848 1809 1771 2105 2733 2046 2146 2572 2110 2455 2029 2851 2720 2945 3369 3636 3860 3793 3484 2877
0 0 27 71 97 70 4 18 681 930 909 825 945 863 1073 560 457 494 621 773 1134 1482 1360 1729 1990 2106 1433 721 999 1458 1064 2097 1862 1500 2279 2435 2623 2492 1123 1095 1421 2468 2395 2985 3472 2548 2838 2785 2708
0 0 6 17 8 15 44 232 639 781 1015 1188 1097 1280 1071 843 810 1193 1434 1210 1648 1674 1617 483 211 16 0 12 66 160 34 36 1 0 21 0 19 0 12 199 310 506 882 2696 3224 2606 3264 3489 2884
0 1 1 0 3 4 16 21 545 776 1058 1463 1543 1925 1683 787 550 378 282 157 121 41 25 1 3 0 0 0 9 124 330 255 242 158 35 4 104 185 168 209 53 156 417 777 2018 2085 2721 3541 2518
0 0 0 2 5 4 1 256 718 732 1153 1389 1173 283 39 218 83 1 2 2 2 2 0 0 0 0 0 0 0 0 0 35 73 24 112 71 158 306 327 359 367 258 272 395 654 1537 1445 2199 2871
0 0 0 11 0 0 0 99 359 747 1532 624 41 0 0 0 0 1 8 12 8 4 0 0 0 0 0 0 0 0 0 0 0 26 3 0 18 26 51 133 246 361 396 421 405 242 194 547 1009